Guam Agana, GU

10:50 AM ChST on December 11, 2019 (GMT +1000)
Guam International

Weather History for PGUM - August, 2019

Change the Weather History Date:

Tuesday, August 27, 2019

  Actual Average Record
Temperature  
Mean Temperature 82 °F -  
Max Temperature 86 °F 84 °F 90 °F (1999)
Min Temperature 77 °F 75 °F 71 °F (2004)
Cooling Degree Days 17    
Growing Degree Days 32 (Base 50)    
Moisture  
Dew Point 75 °F    
Average Humidity 83    
Maximum Humidity 90    
Minimum Humidity 69    
Precipitation  
Precipitation 0.32 in - - ()
Sea Level Pressure  
Sea Level Pressure 29.84 in    
Wind  
Wind Speed 4 mph ()    
Max Wind Speed 10 mph    
Max Gust Speed -    
Visibility 9.1 miles    
Events Rain    
Averages and records for this station are not official NWS values.
T = Trace of Precipitation, MM = Missing Value Source: Averaged Metar Reports

Daily Weather History Graph

Daily Weather History Graph

Search for Another Location

Airport or City:

Astronomy

Aug. 27, 2019 Rise Set
Actual Time 6:09 AM ChST 6:35 PM ChST
Civil Twilight 5:47 AM ChST 6:57 PM ChST
Nautical Twilight 5:22 AM ChST 7:22 PM ChST
Astronomical Twilight 4:56 AM ChST 7:48 PM ChST
Moon 2:29 AM ChST (8/27) 3:45 PM ChST (8/27)
Length of Visible Light 13h 09m
Length of Day
12h 26m
Waning Crescent, 16% of the Moon is Illuminated
Aug 27
Waning Crescent
Aug 30
New
Sep 6
First Quarter
Sep 14
Full
Sep 22
Last Quarter

Hourly Weather History & Observations

Time (ChST) Temp. Heat Index Dew Point Humidity Pressure Visibility Wind Dir Wind Speed Gust Speed Precip Events Conditions
12:54 AM 79.0 °F - 75.0 °F 88% 29.82 in 10.0 mi SSE 4.6 mph - N/A   Scattered Clouds
1:54 AM 79.0 °F - 75.0 °F 88% 29.82 in 10.0 mi SSE 4.6 mph - N/A   Scattered Clouds
2:54 AM 79.0 °F - 75.0 °F 88% 29.81 in 10.0 mi Calm Calm - N/A   Clear
3:22 AM 78.1 °F - 75.0 °F 90% 29.83 in 5.0 mi Calm Calm - 0.02 in Rain Light Rain
3:54 AM 78.1 °F - 75.0 °F 90% 29.81 in 10.0 mi South 3.5 mph - 0.03 in   Scattered Clouds
4:54 AM 79.0 °F - 75.0 °F 88% 29.81 in 10.0 mi ESE 3.5 mph - 0.00 in   Mostly Cloudy
5:16 AM 78.1 °F - 75.0 °F 90% 29.82 in 10.0 mi Calm Calm - 0.00 in   Mostly Cloudy
5:25 AM 78.1 °F - 75.0 °F 90% 29.83 in 10.0 mi ESE 4.6 mph - 0.00 in   Overcast
5:33 AM 78.1 °F - 75.0 °F 90% 29.83 in 4.0 mi SE 8.1 mph - 0.02 in Rain Light Rain
5:35 AM 78.1 °F - 75.0 °F 90% 29.83 in 1.8 mi ESE 10.4 mph - 0.02 in Rain Rain
5:47 AM 78.1 °F - 75.0 °F 90% 29.83 in 3.0 mi SE 3.5 mph - 0.20 in Rain Light Rain
5:54 AM 78.1 °F - 75.0 °F 90% 29.81 in 10.0 mi Calm Calm - 0.21 in   Mostly Cloudy
6:54 AM 78.1 °F - 75.0 °F 90% 29.82 in 10.0 mi SSE 3.5 mph - N/A   Clear
7:54 AM 80.1 °F 85.4 °F 75.9 °F 87% 29.85 in 10.0 mi SSW 4.6 mph - N/A   Clear
8:54 AM 84.0 °F 92.6 °F 75.9 °F 76% 29.86 in 10.0 mi South 8.1 mph - N/A   Mostly Cloudy
9:54 AM 84.9 °F 93.3 °F 75.0 °F 72% 29.86 in 10.0 mi Variable 5.8 mph - N/A   Mostly Cloudy
10:45 AM 86.0 °F 95.1 °F 75.0 °F 70% 29.87 in 10.0 mi SSE 4.6 mph - N/A   Scattered Clouds
10:54 AM 84.9 °F 92.1 °F 73.9 °F 69% 29.85 in 10.0 mi SE 9.2 mph - N/A   Scattered Clouds
11:54 AM 84.9 °F 93.3 °F 75.0 °F 72% 29.85 in 10.0 mi SSE 8.1 mph - N/A   Partly Cloudy
12:54 PM 84.0 °F 91.2 °F 73.9 °F 72% 29.84 in 10.0 mi SSE 6.9 mph - N/A   Scattered Clouds
1:54 PM 82.9 °F 89.4 °F 73.9 °F 74% 29.82 in 10.0 mi SSE 4.6 mph - N/A   Overcast
2:54 PM 81.0 °F 86.7 °F 75.0 °F 82% 29.82 in 10.0 mi NW 5.8 mph - N/A   Overcast
3:07 PM 81.0 °F 87.3 °F 75.9 °F 85% 29.84 in 10.0 mi North 6.9 mph - N/A   Mostly Cloudy
3:54 PM 82.9 °F 91.8 °F 77.0 °F 82% 29.81 in 10.0 mi North 4.6 mph - N/A   Clear
4:54 PM 84.0 °F 91.9 °F 75.0 °F 74% 29.81 in 10.0 mi NNW 4.6 mph - N/A   Clear
5:20 PM 82.9 °F 90.2 °F 75.0 °F 77% 29.84 in 10.0 mi North 4.6 mph - N/A   Mostly Cloudy
5:51 PM 82.4 °F 89.5 °F 75.2 °F 79% 29.85 in 10.0 mi NNW 3.5 mph - N/A   Mostly Cloudy
5:54 PM 82.0 °F 88.6 °F 75.0 °F 79% 29.83 in 10.0 mi NNW 3.5 mph - N/A   Scattered Clouds
6:54 PM 81.0 °F 86.7 °F 75.0 °F 82% 29.86 in 10.0 mi Calm Calm - N/A   Partly Cloudy
7:54 PM 80.1 °F 85.4 °F 75.9 °F 87% 29.87 in 7.0 mi Calm Calm - 0.03 in Rain Light Rain
8:54 PM 79.0 °F - 75.9 °F 90% 29.89 in 10.0 mi East 3.5 mph - 0.02 in Rain Light Rain
9:54 PM 79.0 °F - 75.9 °F 90% 29.90 in 10.0 mi NNE 3.5 mph - 0.03 in   Mostly Cloudy
10:54 PM 79.0 °F - 73.9 °F 84% 29.90 in 10.0 mi ENE 3.5 mph - N/A   Clear
11:54 PM 77.0 °F - 73.9 °F 90% 29.88 in 10.0 mi NNE 3.5 mph - N/A   Clear